K3CHZ Weather Reports


Display with metric or nautical units.
time (UTC)temp
F
wind
direction
speed
MPH
gust
MPH
rain 1hr
in
rain 24hr
in
rain mn
in
humidity
%
barometer
mb
20260904234636 77 276 0.0 0.0 0.00 0.06 0.04 89 1012.0
20260904234136 78 276 0.0 0.0 0.00 0.06 0.04 89 1012.1
20260904233635 78 276 0.0 0.0 0.00 0.06 0.04 90 1012.1
20260904233136 78 276 0.0 0.0 0.00 0.06 0.04 90 1012.3
20260904232637 78 276 0.0 0.0 0.00 0.06 0.04 90 1012.4
20260904232141 78 276 0.0 0.0 0.00 0.06 0.04 88 1012.4
20260904231643 78 276 0.0 0.0 0.00 0.06 0.04 88 1012.4
20260904231142 79 276 0.0 0.0 0.00 0.06 0.04 88 1012.3
20260904230642 79 276 0.0 0.0 0.00 0.06 0.04 88 1012.4
20260904230141 79 276 0.0 0.0 0.00 0.06 0.04 88 1012.4
20260904225644 79 276 0.0 0.0 0.00 0.06 0.04 88 1012.4
20260904225142 79 276 0.0 0.0 0.00 0.06 0.04 87 1012.2
20260904224642 79 276 0.0 0.0 0.00 0.06 0.04 87 1012.1
20260904224142 80 276 0.0 0.0 0.00 0.06 0.04 88 1012.2
20260904223642 80 276 0.0 0.0 0.00 0.06 0.04 88 1012.3
20260904223142 80 276 0.0 0.0 0.00 0.06 0.04 87 1012.3
20260904222642 80 276 0.0 0.0 0.00 0.06 0.04 86 1012.4
20260904222143 80 276 0.0 0.0 0.00 0.06 0.04 86 1012.4
20260904221642 80 276 0.0 0.0 0.00 0.06 0.04 86 1012.5
20260904221143 80 276 0.0 0.0 0.00 0.06 0.04 86 1012.6
20260904220642 80 276 0.0 0.0 0.00 0.06 0.04 86 1012.6
20260904220142 80 276 0.0 0.0 0.00 0.06 0.04 85 1012.5
20260904215641 80 276 0.0 0.0 0.00 0.06 0.04 85 1012.6
20260904215141 80 276 0.0 0.0 0.00 0.06 0.04 85 1012.7
20260904214642 80 276 0.0 0.0 0.00 0.06 0.04 86 1012.7
20260904214141 80 276 0.0 0.0 0.00 0.06 0.04 85 1012.7
20260904213643 80 276 0.0 0.0 0.00 0.06 0.04 85 1012.8
20260904213142 80 276 0.0 0.0 0.00 0.06 0.04 85 1012.9
20260904212643 80 276 0.0 0.0 0.00 0.06 0.04 85 1012.9
20260904212504 80 276 0.0 0.0 0.00 0.06 0.04 85 1012.9
20260904212138 80 276 0.0 0.0 0.00 0.06 0.04 84 1013.0
20260904211639 80 276 0.0 0.0 0.00 0.06 0.04 84 1013.0
20260904211139 80 276 0.0 0.0 0.00 0.06 0.04 84 1013.0
20260904210640 80 276 0.0 0.0 0.00 0.06 0.04 83 1012.9
20260904210138 80 276 0.0 0.0 0.00 0.06 0.04 81 1013.1
20260904205640 80 276 0.0 0.0 0.00 0.06 0.04 80 1013.2
20260904205139 80 276 0.0 0.0 0.00 0.06 0.04 79 1013.4
20260904204638 81 276 0.0 0.0 0.00 0.06 0.04 79 1013.3
20260904204139 81 276 0.0 0.0 0.00 0.06 0.04 78 1013.3
20260904203639 81 276 0.0 0.0 0.00 0.06 0.04 78 1013.4
20260904203138 81 276 0.0 0.0 0.00 0.06 0.04 77 1013.5
20260904202639 82 276 0.0 0.0 0.00 0.06 0.04 77 1013.3
20260904202141 82 276 0.0 0.0 0.00 0.06 0.04 78 1013.4
20260904201640 82 276 0.0 0.0 0.00 0.06 0.04 76 1013.4
20260904201139 83 276 0.0 0.0 0.00 0.06 0.04 76 1013.5
20260904200639 83 276 0.0 0.0 0.00 0.06 0.04 75 1013.5
20260904200140 84 276 0.0 1.0 0.00 0.06 0.04 74 1013.6
20260904195639 84 276 0.0 1.0 0.00 0.06 0.04 74 1013.4
20260904195139 84 276 0.0 1.0 0.00 0.06 0.04 75 1013.4
20260904194639 84 276 0.0 1.0 0.00 0.06 0.04 74 1013.4
20260904194138 84 276 0.0 3.0 0.00 0.06 0.04 74 1013.5
20260904193639 84 276 0.0 3.0 0.00 0.06 0.04 73 1013.3
20260904193141 84 272 0.0 0.0 0.00 0.06 0.04 74 1013.0
20260904192641 85 36 0.0 1.0 0.00 0.06 0.04 72 1013.2
20260904192142 85 36 0.0 1.0 0.00 0.06 0.04 75 1013.4
20260904191642 85 32 0.0 0.0 0.00 0.06 0.04 72 1013.3
20260904191143 85 32 0.0 0.0 0.00 0.06 0.04 71 1013.4
20260904190645 85 16 0.0 1.0 0.00 0.06 0.04 71 1013.6
20260904190142 85 16 0.0 1.0 0.00 0.06 0.04 74 1013.7
20260904185641 85 16 0.0 1.0 0.00 0.06 0.04 70 1013.8
20260904185143 85 17 0.0 1.0 0.00 0.06 0.04 68 1013.9
20260904184642 85 17 0.0 1.0 0.00 0.06 0.04 70 1014.0
20260904184142 85 17 0.0 1.0 0.00 0.06 0.04 71 1014.1
20260904183641 85 296 0.0 1.0 0.00 0.06 0.04 71 1014.1
20260904183142 85 298 0.0 2.0 0.00 0.06 0.04 72 1014.1
20260904182639 85 298 0.0 2.0 0.00 0.06 0.04 72 1014.1
20260904182139 85 94 0.0 1.0 0.00 0.06 0.04 70 1014.2
20260904181639 85 323 0.0 1.0 0.00 0.06 0.04 73 1014.2
20260904181139 85 316 0.0 1.0 0.00 0.06 0.04 71 1014.1
20260904180639 85 316 0.0 1.0 0.00 0.06 0.04 70 1014.0
20260904180139 85 316 0.0 1.0 0.00 0.06 0.04 70 1014.1
20260904175639 85 311 0.0 1.0 0.00 0.06 0.04 74 1014.1
20260904175138 84 308 0.0 3.0 0.00 0.06 0.04 71 1014.1
20260904174639 85 308 0.0 3.0 0.00 0.06 0.04 72 1014.0
20260904174139 84 2 0.0 1.0 0.00 0.06 0.04 73 1014.1
20260904173639 84 323 0.0 1.0 0.00 0.06 0.04 70 1014.1
20260904173138 84 336 0.0 1.0 0.00 0.06 0.04 70 1014.2
20260904172640 84 324 0.0 1.0 0.00 0.06 0.04 73 1014.3
20260904172142 84 316 0.0 0.0 0.00 0.06 0.04 72 1014.3
20260904171642 84 316 0.0 0.0 0.00 0.06 0.04 72 1014.3
20260904171142 84 10 0.0 1.0 0.00 0.06 0.04 72 1014.3
20260904170642 84 5 0.0 1.0 0.00 0.06 0.04 71 1014.4
20260904170142 84 340 0.0 1.0 0.00 0.06 0.04 74 1014.4
20260904165642 84 34 0.0 1.0 0.00 0.06 0.04 73 1014.6
20260904165144 83 7 0.0 1.0 0.00 0.06 0.04 74 1014.7
20260904164642 83 331 0.0 1.0 0.00 0.06 0.04 73 1014.7
20260904164142 83 306 0.0 1.0 0.00 0.06 0.04 73 1014.6
20260904163642 83 306 0.0 1.0 0.00 0.06 0.04 75 1014.8
20260904163143 83 344 0.0 1.0 0.00 0.06 0.04 74 1014.8
20260904162639 83 355 0.0 2.0 0.00 0.06 0.04 74 1014.8
20260904162139 82 343 0.0 2.0 0.00 0.06 0.04 76 1014.9
20260904161640 82 147 0.0 1.0 0.00 0.07 0.04 75 1015.0
20260904161138 82 338 0.0 2.0 0.00 0.08 0.04 75 1014.9
20260904160640 82 338 0.0 2.0 0.00 0.08 0.04 77 1014.8
20260904160139 82 353 0.0 1.0 0.00 0.08 0.04 75 1014.8
20260904155639 82 352 0.0 1.0 0.00 0.08 0.04 76 1014.9
20260904155139 82 140 0.0 1.0 0.00 0.09 0.04 75 1014.9
20260904154639 82 325 0.0 1.0 0.00 0.09 0.04 77 1015.0
20260904154140 82 325 0.0 0.0 0.00 0.09 0.04 78 1015.0
20260904153639 82 325 0.0 0.0 0.00 0.09 0.04 77 1015.1
20260904153139 81 325 0.0 1.0 0.00 0.09 0.04 79 1015.1
20260904152640 81 325 0.0 1.0 0.00 0.10 0.04 78 1015.3
20260904152142 80 299 0.0 1.0 0.00 0.10 0.04 79 1015.2
20260904151643 80 238 0.0 1.0 0.00 0.10 0.04 80 1015.2
20260904151142 80 186 0.0 0.0 0.00 0.10 0.04 79 1015.2
20260904150643 80 255 0.0 0.0 0.00 0.10 0.04 79 1015.3
20260904150144 79 254 0.0 2.0 0.00 0.10 0.04 79 1015.2
20260904145644 79 254 0.0 2.0 0.00 0.10 0.04 80 1015.3
20260904145141 79 304 0.0 2.0 0.00 0.10 0.04 81 1015.2
20260904144643 79 297 0.0 0.0 0.00 0.10 0.04 79 1015.3
20260904144142 79 306 0.0 0.0 0.00 0.10 0.04 83 1015.3
20260904143642 78 306 0.0 0.0 0.00 0.10 0.04 81 1015.3
20260904143141 78 306 0.0 3.0 0.00 0.10 0.04 83 1015.4
20260904142643 78 306 0.0 3.0 0.00 0.10 0.04 83 1015.4
20260904142142 78 333 0.0 0.0 0.00 0.10 0.04 83 1015.3
20260904141643 78 343 0.0 0.0 0.00 0.10 0.04 84 1015.2
20260904141142 77 12 0.0 0.0 0.00 0.10 0.04 83 1015.0
20260904140642 76 12 0.0 2.0 0.00 0.10 0.04 86 1014.8
20260904140143 76 12 0.0 2.0 0.00 0.10 0.04 86 1014.8
20260904135643 75 321 0.0 0.0 0.00 0.10 0.04 88 1014.8
20260904135141 74 323 0.0 0.0 0.00 0.10 0.04 90 1014.8
20260904134643 74 323 0.0 1.0 0.00 0.10 0.04 93 1015.0
20260904134142 73 323 0.0 1.0 0.00 0.10 0.04 93 1015.0
20260904133642 73 322 0.0 0.0 0.00 0.10 0.04 94 1015.1
20260904133143 73 322 0.0 0.0 0.00 0.10 0.04 93 1015.1
20260904132639 72 322 0.0 0.0 0.00 0.10 0.04 94 1015.1
20260904132139 72 322 0.0 0.0 0.00 0.10 0.04 94 1015.0
20260904131639 72 322 0.0 0.0 0.00 0.10 0.04 95 1015.1
20260904131139 72 322 0.0 0.0 0.00 0.10 0.04 95 1015.0
20260904130640 71 322 0.0 0.0 0.00 0.10 0.04 95 1014.9
20260904130140 71 322 0.0 0.0 0.00 0.10 0.04 95 1015.0
20260904125639 71 322 0.0 0.0 0.00 0.10 0.04 95 1015.1
20260904125141 71 322 0.0 0.0 0.00 0.10 0.04 95 1015.0
20260904124639 71 322 0.0 0.0 0.00 0.10 0.04 95 1015.0
20260904124140 70 322 0.0 0.0 0.00 0.10 0.04 95 1015.0
20260904123639 70 322 0.0 0.0 0.00 0.10 0.04 95 1015.0
20260904123139 70 322 0.0 0.0 0.00 0.10 0.04 95 1015.1
20260904122640 70 322 0.0 0.0 0.00 0.10 0.04 95 1015.1
20260904122143 70 322 0.0 0.0 0.00 0.10 0.04 95 1015.0
20260904121643 70 322 0.0 0.0 0.00 0.10 0.04 95 1014.9
20260904121142 69 322 0.0 0.0 0.00 0.10 0.04 95 1014.9
20260904120642 69 322 0.0 0.0 0.00 0.10 0.04 95 1014.9
20260904120142 69 322 0.0 0.0 0.00 0.10 0.04 95 1014.9
20260904115642 69 322 0.0 0.0 0.00 0.10 0.04 95 1014.9
20260904115143 69 322 0.0 0.0 0.00 0.10 0.04 95 1014.8
20260904114642 69 322 0.0 0.0 0.00 0.10 0.04 95 1014.9
20260904114145 69 322 0.0 0.0 0.00 0.10 0.04 95 1015.0
20260904113642 69 322 0.0 0.0 0.00 0.10 0.04 95 1014.9
20260904113143 69 322 0.0 0.0 0.00 0.10 0.04 95 1014.8
20260904112643 69 322 0.0 0.0 0.00 0.10 0.04 94 1014.9
20260904112143 69 322 0.0 0.0 0.00 0.10 0.04 94 1014.8
20260904111642 69 322 0.0 0.0 0.00 0.10 0.04 94 1014.8
20260904111145 69 322 0.0 0.0 0.00 0.10 0.04 94 1014.6
20260904110642 69 322 0.0 0.0 0.00 0.10 0.04 94 1014.6
20260904110142 69 322 0.0 0.0 0.00 0.10 0.04 94 1014.5
20260904105643 69 322 0.0 0.0 0.00 0.10 0.04 94 1014.5
20260904105142 69 322 0.0 0.0 0.00 0.10 0.04 94 1014.3
20260904104644 69 322 0.0 0.0 0.00 0.10 0.04 94 1014.3
20260904104142 69 322 0.0 0.0 0.00 0.10 0.04 94 1014.3
20260904103642 69 322 0.0 0.0 0.00 0.10 0.04 94 1014.5
20260904103144 69 322 0.0 0.0 0.00 0.10 0.04 94 1014.4
20260904102642 69 322 0.0 0.0 0.00 0.10 0.04 94 1014.3
20260904102139 69 322 0.0 0.0 0.00 0.10 0.04 94 1014.2
20260904101639 69 322 0.0 0.0 0.00 0.10 0.04 94 1014.1
20260904101140 69 322 0.0 0.0 0.00 0.10 0.04 94 1013.9
20260904100639 69 322 0.0 0.0 0.00 0.10 0.04 94 1014.2
20260904100139 69 322 0.0 0.0 0.00 0.10 0.04 94 1014.2
20260904095641 69 322 0.0 0.0 0.00 0.10 0.04 94 1014.2
20260904095140 69 322 0.0 0.0 0.00 0.10 0.04 94 1014.3
20260904094639 69 322 0.0 0.0 0.00 0.10 0.04 94 1014.3
20260904094140 69 322 0.0 0.0 0.00 0.10 0.04 94 1014.3
20260904093640 69 322 0.0 0.0 0.00 0.10 0.04 95 1014.4
20260904093139 69 322 0.0 0.0 0.00 0.10 0.04 94 1014.1
20260904092641 69 286 0.0 2.0 0.00 0.10 0.04 95 1014.1
20260904092139 69 286 0.0 2.0 0.00 0.10 0.04 95 1013.7
20260904091639 69 286 0.0 0.0 0.00 0.10 0.04 95 1013.7
20260904091139 69 286 0.0 0.0 0.00 0.10 0.04 94 1013.7
20260904090640 69 286 0.0 0.0 0.00 0.10 0.04 94 1013.6
20260904090139 69 286 0.0 0.0 0.00 0.10 0.04 94 1013.7
20260904085640 69 286 0.0 0.0 0.00 0.10 0.04 94 1013.6
20260904085139 69 286 0.0 0.0 0.00 0.10 0.04 94 1013.6
20260904084640 69 286 0.0 0.0 0.00 0.10 0.04 95 1013.6
20260904084140 69 286 0.0 0.0 0.00 0.10 0.04 94 1013.7
20260904083642 69 286 0.0 0.0 0.00 0.10 0.04 94 1013.9
20260904083141 69 286 0.0 0.0 0.00 0.10 0.04 94 1013.9
20260904082639 69 286 0.0 0.0 0.00 0.10 0.04 94 1013.8
20260904082140 69 286 0.0 0.0 0.00 0.10 0.04 94 1013.8
20260904081639 69 286 0.0 0.0 0.00 0.10 0.04 94 1013.8
20260904081139 69 286 0.0 0.0 0.00 0.10 0.04 94 1013.7
20260904080640 69 286 0.0 0.0 0.00 0.10 0.04 94 1013.7
20260904080139 69 286 0.0 0.0 0.00 0.10 0.04 94 1013.7
20260904075639 69 286 0.0 0.0 0.00 0.10 0.04 94 1013.8
20260904075139 69 286 0.0 0.0 0.00 0.10 0.04 94 1013.9
20260904074640 69 286 0.0 0.0 0.00 0.10 0.04 94 1013.8
20260904074139 69 286 0.0 0.0 0.00 0.10 0.04 94 1013.9
20260904073640 69 286 0.0 0.0 0.00 0.10 0.04 94 1013.8
20260904073139 69 286 0.0 0.0 0.00 0.10 0.04 94 1013.7
20260904072640 69 286 0.0 0.0 0.00 0.10 0.04 94 1013.7
20260904072143 69 286 0.0 0.0 0.00 0.10 0.04 94 1013.7
20260904071643 69 286 0.0 0.0 0.00 0.10 0.04 94 1013.6
20260904071142 69 286 0.0 0.0 0.00 0.10 0.04 94 1013.6
20260904070643 69 286 0.0 0.0 0.00 0.10 0.04 94 1013.6
20260904070142 69 286 0.0 0.0 0.00 0.10 0.04 94 1013.6
20260904065643 69 286 0.0 0.0 0.00 0.10 0.04 94 1013.5
20260904065142 69 286 0.0 0.0 0.00 0.10 0.04 94 1013.4
20260904064643 69 286 0.0 0.0 0.00 0.10 0.04 94 1013.5
20260904064144 69 286 0.0 0.0 0.00 0.10 0.04 94 1013.4
20260904063644 69 286 0.0 0.0 0.00 0.10 0.04 94 1013.3
20260904063144 69 286 0.0 0.0 0.00 0.10 0.04 94 1013.1
20260904062644 69 286 0.0 0.0 0.00 0.10 0.04 94 1013.0
20260904062143 69 286 0.0 0.0 0.00 0.10 0.04 94 1013.0
20260904061644 70 286 0.0 0.0 0.00 0.10 0.04 94 1013.2
20260904061142 70 286 0.0 0.0 0.00 0.10 0.04 94 1013.1
20260904060643 70 286 0.0 0.0 0.00 0.10 0.04 94 1013.1
20260904060143 70 286 0.0 0.0 0.00 0.10 0.04 94 1013.4
20260904055643 70 286 0.0 0.0 0.00 0.10 0.04 94 1013.4
20260904055143 70 286 0.0 0.0 0.00 0.10 0.04 94 1013.5
20260904054643 70 286 0.0 0.0 0.00 0.10 0.04 94 1013.7
20260904054143 70 286 0.0 0.0 0.00 0.10 0.04 94 1013.7
20260904053643 70 286 0.0 0.0 0.00 0.10 0.04 93 1014.3
20260904053143 70 286 0.0 1.0 0.00 0.10 0.04 93 1014.3
20260904052642 70 286 0.0 1.0 0.01 0.10 0.04 93 1014.1
20260904052143 70 286 0.0 1.0 0.01 0.10 0.04 93 1013.9
20260904051642 70 286 0.0 1.0 0.01 0.10 0.04 93 1013.7
20260904051146 70 286 0.0 0.0 0.02 0.10 0.04 93 1013.6
20260904050642 70 286 0.0 0.0 0.03 0.10 0.04 93 1014.0
20260904050143 70 286 0.0 0.0 0.04 0.10 0.04 93 1014.2
20260904045642 70 286 0.0 0.0 0.04 0.10 0.04 93 1014.4
20260904045142 71 286 0.0 1.0 0.04 0.10 0.04 93 1014.4
20260904044643 71 302 0.0 1.0 0.04 0.10 0.04 93 1014.0
20260904044143 71 302 0.0 0.0 0.04 0.10 0.04 92 1014.0
20260904043643 71 302 0.0 0.0 0.04 0.10 0.04 92 1013.9
20260904043143 71 302 0.0 0.0 0.04 0.10 0.04 92 1014.0
20260904042643 71 302 0.0 0.0 0.03 0.09 0.03 91 1014.6
20260904042144 71 302 0.0 0.0 0.03 0.09 0.03 91 1015.2
20260904041643 72 302 0.0 0.0 0.03 0.09 0.03 91 1015.8
20260904041143 72 302 0.0 0.0 0.02 0.08 0.02 90 1015.6
20260904040644 73 302 0.0 5.0 0.02 0.07 0.01 90 1015.9
20260904040143 73 302 0.0 8.0 0.02 0.06 0.00 90 1015.9
20260904035644 73 313 2.0 8.0 0.02 0.06 0.00 90 1015.8
20260904035142 73 317 2.0 8.0 0.02 0.06 0.06 92 1015.5
20260904034643 73 312 1.0 8.0 0.02 0.06 0.06 92 1015.1
20260904034143 74 322 1.0 3.0 0.02 0.06 0.06 92 1014.6
20260904033642 74 350 0.0 0.0 0.02 0.06 0.06 91 1014.4
20260904033142 74 350 0.0 0.0 0.02 0.06 0.06 90 1014.3
20260904032643 75 351 0.0 0.0 0.02 0.06 0.06 90 1014.6
20260904032144 75 351 0.0 0.0 0.02 0.06 0.06 90 1014.7
20260904031644 76 351 0.0 0.0 0.02 0.06 0.06 88 1014.7
20260904031142 76 351 0.0 0.0 0.02 0.06 0.06 88 1015.1
20260904030643 77 351 0.0 3.0 0.02 0.06 0.06 87 1015.1
20260904030142 78 351 0.0 6.0 0.01 0.05 0.05 86 1015.3
20260904025643 78 4 1.0 12.0 0.00 0.04 0.04 88 1015.3
20260904025143 78 324 3.0 12.0 0.00 0.04 0.04 91 1015.3
20260904024643 78 323 0.0 5.0 0.00 0.04 0.04 91 1014.6
20260904024142 78 323 0.0 0.0 0.00 0.04 0.04 91 1014.7
20260904023642 78 323 0.0 0.0 0.00 0.04 0.04 91 1014.6
20260904023142 78 323 0.0 0.0 0.00 0.04 0.04 91 1014.6
20260904022643 78 323 0.0 0.0 0.00 0.04 0.04 91 1014.7
20260904022147 78 323 0.0 0.0 0.00 0.04 0.04 91 1014.5
20260904021646 78 323 0.0 0.0 0.00 0.04 0.04 91 1014.4
20260904021146 78 323 0.0 0.0 0.00 0.04 0.04 91 1014.4
20260904020646 78 323 0.0 0.0 0.00 0.04 0.04 92 1014.4
20260904020146 78 323 0.0 0.0 0.00 0.04 0.04 92 1014.4
20260904015645 78 323 0.0 0.0 0.00 0.04 0.04 92 1014.4
20260904015146 78 323 0.0 0.0 0.00 0.04 0.04 92 1014.5
20260904014647 78 323 0.0 0.0 0.00 0.04 0.04 92 1014.4
20260904014145 78 323 0.0 0.0 0.00 0.04 0.04 92 1014.3
20260904013646 78 323 0.0 0.0 0.00 0.04 0.04 92 1014.2
20260904013146 78 323 0.0 0.0 0.00 0.04 0.04 91 1014.3
20260904012640 78 323 0.0 0.0 0.00 0.04 0.04 91 1014.3
20260904012139 78 323 0.0 0.0 0.00 0.04 0.04 91 1014.2
20260904011640 78 323 0.0 0.0 0.00 0.04 0.04 91 1014.1
20260904011140 78 323 0.0 0.0 0.00 0.04 0.04 91 1014.1
20260904010640 78 323 0.0 0.0 0.00 0.04 0.04 91 1014.1
20260904010140 78 323 0.0 0.0 0.00 0.04 0.04 90 1014.1
20260904005640 78 323 0.0 0.0 0.00 0.04 0.04 91 1014.2
20260904005139 78 323 0.0 0.0 0.00 0.04 0.04 91 1014.3
20260904004641 78 323 0.0 0.0 0.00 0.04 0.04 91 1014.4
20260904004141 78 323 0.0 0.0 0.00 0.04 0.04 91 1014.5
20260904003640 78 323 0.0 0.0 0.00 0.04 0.04 91 1014.7
20260904003141 78 323 0.0 0.0 0.00 0.04 0.04 91 1014.7
20260904002641 78 323 0.0 0.0 0.00 0.04 0.04 91 1014.7
20260904002143 78 323 0.0 0.0 0.00 0.04 0.04 91 1014.7
20260904001645 78 323 0.0 0.0 0.00 0.04 0.04 90 1014.7
20260904001145 78 323 0.0 0.0 0.00 0.04 0.04 90 1014.8
20260904000643 79 323 0.0 0.0 0.00 0.04 0.04 89 1014.9
20260904000145 79 323 0.0 0.0 0.00 0.04 0.04 89 1014.9
20260903235643 79 323 0.0 0.0 0.00 0.04 0.04 89 1014.8
20260903235142 79 323 0.0 0.0 0.00 0.04 0.04 89 1014.6